Regional Weather Roundup
Issued by NWS Upton, NY

Current Version | Previous Version | Graphics & Text | Print | Product List | Glossary Off
Versions: 1 2 3 4 5 6 7 8 9 10 11 12 13 14 15 16 17 18 19 20 21 22 23 24 25 26 27 28 29 30 31 32 33 34 35 36 37 38 39 40 41 42 43 44 45 46 47 48 49 50

000
ASUS41 KOKX 050308
RWROKX

REGIONAL WEATHER ROUNDUP
NATIONAL WEATHER SERVICE NEW YORK NY
1100 PM EDT MON MAY 04 2015

NOTE: "FAIR" INDICATES FEW OR NO CLOUDS BELOW 12,000 FEET WITH NO
SIGNIFICANT WEATHER AND/OR OBSTRUCTIONS TO VISIBILITY.

NYZ071-072-176-178-NJZ106-104-050400-
NEW YORK CITY METRO AREA


CITY           SKY/WX    TMP DP  RH WIND       PRES   REMARKS
CENTRAL PARK   CLEAR     73  41  31 VRB7      30.18S
LAGUARDIA APRT PTCLDY    73  41  31 SW14G24   30.15S
KENNEDY INTL   PTCLDY    60  47  61 S14       30.18S
NEWARK/LIBERTY PTCLDY    72  43  35 S12       30.16R
BRNX BOT. GARD   N/A     72  43  35 S3        30.16S
TETERBORO      CLEAR     72  43  35 S12       30.14R
$$

NYZ177-179-078>081-050400-
LONG ISLAND NEW YORK

CITY           SKY/WX    TMP DP  RH WIND       PRES   REMARKS
FARMINGDALE    CLEAR     62  46  55 SW14      30.18S
ISLIP          CLEAR     64  45  49 SW17      30.16F
SHIRLEY        CLEAR     63  45  51 SW13G25   30.19F
WESTHAMPTON    CLEAR     57  45  64 SW10G21   30.20F
MONTAUK POINT    N/A     57  46  66 S13G24    30.19F
$$

NYZ052-065-067-050400-
HUDSON VALLEY

CITY           SKY/WX    TMP DP  RH WIND       PRES   REMARKS
WHITE PLAINS   CLEAR     68  43  40 S5        30.15S
NEWBURGH       CLEAR     73  45  35 SW12      30.13R
MONTGOMERY     PTCLDY    72  45  37 SW10      30.11S
POUGHKEEPSIE   MOCLDY    77  42  28 SW9       30.09S
ALBANY         CLOUDY    73  44  35 W10       30.08R
$$

NJZ001-105-106-008-010-013-015-019>022-104-050400-
NEW JERSEY

CITY           SKY/WX    TMP DP  RH WIND       PRES   REMARKS
NEWARK/LIBERTY PTCLDY    72  43  35 S12       30.16R
TETERBORO      CLEAR     72  43  35 S12       30.14R
CALDWELL       CLEAR     74  42  31 SW5       30.15S
MORRISTOWN     CLEAR     73  37  27 SW7       30.16S
SOMERVILLE     CLEAR     69  43  38 CALM      30.15R
SUSSEX         PTCLDY    69  44  40 SW3       30.16R
ANDOVER          N/A     69  46  43 S3        30.16R
TRENTON        CLEAR     69  42  37 S8        30.18R
MILLVILLE      CLEAR     67  46  47 S5        30.21F
ATLANTIC CITY  CLEAR     67  46  47 S13       30.22S
WRIGHTSTOWN    CLEAR     66  44  43 SW12      30.17S
TOMS RIVER     CLEAR     66  45  45 S10       30.21S
BELMAR         CLEAR     70  43  37 SW9       30.19S
$$

PAZ047>061-062-071-050400-
EASTERN PENNSYLVANIA

CITY           SKY/WX    TMP DP  RH WIND       PRES   REMARKS
PHILADELPHIA   PTCLDY    71  48  43 S7        30.19S
ALLENTOWN      FAIR      72  47  40 SW12      30.16R
SCRANTON       PTCLDY    74  44  34 S7        30.14R
$$

CTZ002-004>006-009-010-012-RIZ004-006-007-MAZ004-011-015-050400-
SOUTHERN NEW ENGLAND
 IN CT

CITY           SKY/WX    TMP DP  RH WIND       PRES   REMARKS
BRADLEY INTL   PTCLDY    68  42  38 S12       30.10S
HARTFORD       CLEAR     67  42  40 S9        30.11F
DANBURY        CLEAR     69  42  37 S10       30.15S
WTRBRY/OXFORD    N/A     66  43  42 SW9G17    30.16R
BRIDGEPORT     CLEAR     63  46  54 SW13      30.15S
MERIDEN        CLEAR     65  42  43 S6        30.14S
NEW HAVEN      CLEAR     61  44  53 SW8       30.15S
CHESTER        FAIR      64  43  45 SW8G16    30.17S
GROTON         CLEAR     58  44  60 SW8       30.17S
WILLIMANTIC    CLEAR     68  41  37 S6        30.14S

 IN RI

CITY           SKY/WX    TMP DP  RH WIND       PRES   REMARKS
PROVIDENCE     CLEAR     65  40  39 SW15G22   30.15F
BLOCK ISLAND   CLEAR     54  45  71 SW18G25   30.18F
WESTERLY       CLEAR     57  45  64 SW8       30.18F

 IN MA

CITY           SKY/WX    TMP DP  RH WIND       PRES   REMARKS
BOSTON         PTCLDY    68  40  35 SW15G23   30.09F
WORCESTER      CLEAR     66  39  37 SW18      30.12S
WESTFIELD      CLEAR     68  41  37 S9        30.09S
PROVINCETOWN   PTCLDY    54  46  76 SW18G25   30.14F
NANTUCKET      CLEAR     53  50  89 SW14      30.19F
$$

ANZ330-335-338-340-345-350-353-355-050400-
COASTAL MARINE OBSERVATIONS


STATION/POSITION TIME  SKY/WX   TEMP    WIND        PRES    VSBY  WAVE
                                AIR SEA DIR/SP/G                  HT/PER
                 (UTC)          (F)     (DEG/KT/KT) (MB)    (MI)  (FT/S)
NY HARB ENTRANCE 0250            56 51  200/ 17/ 19 1021.3          4/ 4
4S FIRE IS       0203               48                N/A           4/ 5
20S FIRE ISLAND  0250            53 48  210/ 16/ 17 1022.4          4/ 4
GREAT SOUTH BAY  0200            59 59  250/ 17/ 23   N/A
23SW MTP         0250            52 46  210/ 17/ 19 1022.1          4/ 4
HUDSON CANYON    NOT AVBL
KINGS POINT      0200            66 48  210/ 14/ 15 1020.5
EASTERN LI SOUND 0200            54     200/ 14/ 17   N/A
ROBBINS REEF     0200            73     200/ 18/ 22 1019.9
$$


>>>>>>>>>>>>>>>>>>>>>>>>>>>> KEY <<<<<<<<<<<<<<<<<<<<<<<<<<<
>                                                          <
>     SKY/WX - SKY CONDITION/PRESENT WEATHER               <
>     TMP    - TEMPERATURE IN FAHRENHEIT                   <
>     DP     - DEWPOINT IN FAHRENHEIT                      <
>     RH     - RELATIVE HUMIDITY IN PERCENT                <
>     WIND   - DIRECTION AND SPEED IN MPH                  <
>     PRES   - MEAN SEA LEVEL PRESSURE IN INCHES OF HG     <
>     WCI    - WIND CHILL INDEX                            <
>     VSB    - VISIBILITY IN MILES                         <
>     HX     - HEAT INDEX                                  <
>     TC     - TEMPERATURE IN CELSIUS                      <
>     VRB    - VARIABLE WIND DIRECTION                     <
>                                                          <
>>>>>>>>>>>>>>>>>>>>>>>>>>>> KEY <<<<<<<<<<<<<<<<<<<<<<<<<<<





USA.gov is the U.S. government's official web portal to all federal, state and local government web resources and services.